Hope, British Columbia

9:44 PM PST on November 22, 2017 (GMT -0800)
Hope

Weather History for CYHE - April, 2013

Change the Weather History Date:

Monday, April 8, 2013

  Actual Average Record
Temperature  
Mean Temperature 49 °F -  
Max Temperature 57 °F 60 °F 77 °F (2016)
Min Temperature 41 °F 42 °F 33 °F (1997)
Degree Days  
Heating Degree Days 16    
Moisture  
Dew Point 42 °F    
Average Humidity 85    
Maximum Humidity 100    
Minimum Humidity 52    
Precipitation  
Precipitation 0.01 in 0.16 in - ()
Sea Level Pressure  
Sea Level Pressure 30.05 in    
Wind  
Wind Speed 4 mph ()    
Max Wind Speed 13 mph    
Max Gust Speed 18 mph    
Visibility 9.0 miles    
Events Rain    
Averages and records for this station are not official NWS values.
T = Trace of Precipitation, MM = Missing Value Source: Averaged Metar Reports

Daily Weather History Graph

Daily Weather History Graph

Search for Another Location

Airport or City:

Trip Planner

Search our weather history database for the weather conditions in past years. The results will help you decide how hot, cold, wet, or windy it might be!

Date:

Astronomy

Apr. 08, 2013 Rise Set
Actual Time 6:27 AM PDT 7:48 PM PDT
Civil Twilight 5:54 AM PDT 8:21 PM PDT
Nautical Twilight 5:14 AM PDT 9:01 PM PDT
Astronomical Twilight 4:31 AM PDT 9:45 PM PDT
Moon 5:28 AM PDT (4/8) 6:23 PM PDT (4/8)
Length of Visible Light 14h 26m
Length of Day
13h 20m
Waning Crescent, 3% of the Moon is Illuminated
Apr 8
Waning Crescent
Apr 10
New
Apr 18
First Quarter
Apr 25
Full
May 2
Last Quarter

Hourly Weather History & Observations

Time (PDT) Temp. Windchill Dew Point Humidity Pressure Visibility Wind Dir Wind Speed Gust Speed Precip Events Conditions
12:00 AM 42.8 °F 39.3 °F 41.0 °F 93% 29.87 in 7.0 mi WSW 5.8 mph - N/A Rain Light Rain
1:00 AM 42.8 °F 39.3 °F 41.0 °F 93% 29.89 in 9.0 mi West 5.8 mph - N/A Rain Light Rain
1:26 AM 42.8 °F 39.3 °F 41.0 °F 93% 29.91 in 9.0 mi West 5.8 mph - N/A Rain Light Rain
2:00 AM 42 °F - 41 °F 95% 29.92 in - SW 5.8 mph - -  
2:00 AM 42.8 °F 38.6 °F 41.0 °F 93% 29.92 in 9.0 mi WSW 6.9 mph - N/A Rain Light Rain
2:25 AM 42.8 °F - 41.0 °F 93% 29.93 in 9.0 mi Calm Calm - N/A   Overcast
2:28 AM 42.8 °F - 41.0 °F 93% 29.93 in 9.0 mi Calm Calm - N/A   Overcast
2:35 AM 42.8 °F - 41.0 °F 93% 29.93 in 9.0 mi Calm Calm - N/A Rain Light Rain
3:00 AM 42.8 °F - 41.0 °F 93% 29.94 in 9.0 mi South 2.3 mph - N/A Rain Light Rain
3:24 AM 42.8 °F - 41.0 °F 93% 29.94 in 9.0 mi Calm Calm - N/A Rain Light Rain
3:33 AM 42.8 °F - 41.0 °F 93% 29.95 in 9.0 mi Calm Calm - N/A   Overcast
3:37 AM 42.8 °F - 41.0 °F 93% 29.95 in 9.0 mi Calm Calm - N/A Rain Light Rain
3:55 AM 42.8 °F 41.1 °F 41.0 °F 93% 29.96 in 9.0 mi East 3.5 mph - N/A   Overcast
3:58 AM 42.8 °F 41.1 °F 41.0 °F 93% 29.96 in 9.0 mi East 3.5 mph - N/A   Overcast
4:00 AM 42.8 °F 41.1 °F 41.0 °F 93% 29.96 in 9.0 mi ESE 3.5 mph - N/A   Overcast
4:18 AM 42.8 °F 41.1 °F 41.0 °F 93% 29.96 in 9.0 mi East 3.5 mph - N/A   Overcast
4:23 AM 42.8 °F 41.1 °F 41.0 °F 93% 29.96 in 9.0 mi ESE 3.5 mph - N/A   Overcast
5:00 AM 42 °F - 41 °F 95% 29.98 in - East 3.5 mph - -  
5:00 AM 42.8 °F 40.1 °F 41.0 °F 93% 29.98 in 9.0 mi ESE 4.6 mph - N/A   Overcast
5:08 AM 42.8 °F 41.1 °F 41.0 °F 93% 29.98 in 9.0 mi East 3.5 mph - N/A   Overcast
5:31 AM 42.8 °F - 41.0 °F 93% 30.00 in 9.0 mi Calm Calm - N/A   Overcast
5:49 AM 41.0 °F - 41.0 °F 100% 30.00 in 9.0 mi Calm Calm - N/A   Overcast
5:55 AM 41.0 °F - 41.0 °F 100% 30.01 in 9.0 mi West 2.3 mph - N/A   Overcast
6:00 AM 41.0 °F - 41.0 °F 100% 30.01 in 9.0 mi Calm Calm - N/A   Mostly Cloudy
6:09 AM 41.0 °F - 41.0 °F 100% 30.01 in 9.0 mi Calm Calm - N/A   Overcast
6:41 AM 42.8 °F - 41.0 °F 93% 30.04 in 9.0 mi Calm Calm - N/A   Overcast
7:00 AM 42.8 °F - 41.0 °F 93% 30.04 in 9.0 mi Calm Calm - N/A   Overcast
7:59 AM 42.8 °F - 42.8 °F 100% 30.07 in 9.0 mi Variable 2.3 mph - N/A   Overcast
8:00 AM 43 °F - 42 °F 95% 30.08 in - East 1.2 mph - -  
8:00 AM 42.8 °F - 42.8 °F 100% 30.07 in 9.0 mi Variable 2.3 mph - N/A   Overcast
8:07 AM 42.8 °F - 42.8 °F 100% 30.07 in 9.0 mi East 2.3 mph - N/A   Overcast
9:00 AM 44.6 °F 41.4 °F 42.8 °F 93% 30.09 in 9.0 mi ESE 5.8 mph - N/A   Overcast
9:02 AM 44.6 °F 41.4 °F 42.8 °F 93% 30.09 in 9.0 mi ESE 5.8 mph - N/A   Overcast
10:00 AM 46.4 °F 42.9 °F 42.8 °F 87% 30.09 in 9.0 mi East 6.9 mph - N/A   Overcast
11:00 AM 48 °F - 44 °F 81% 30.11 in - East 8.1 mph - -  
11:00 AM 48.2 °F - 42.8 °F 82% 30.10 in 9.0 mi ESE 8.1 mph - N/A   Overcast
12:00 PM 50.0 °F - 41.0 °F 71% 30.11 in 9.0 mi ESE 3.5 mph - N/A   Overcast
1:00 PM 55.4 °F - 41.0 °F 58% 30.10 in 9.0 mi East 4.6 mph - N/A   Mostly Cloudy
2:00 PM 54 °F - 41 °F 52% 30.12 in - West 11.5 mph - -  
2:00 PM 55.4 °F - 41.0 °F 58% 30.12 in 9.0 mi West 11.5 mph 18.4 mph N/A   Overcast
3:00 PM 55.4 °F - 39.2 °F 54% 30.12 in 9.0 mi West 12.7 mph - N/A   Overcast
4:00 PM 55.4 °F - 41.0 °F 58% 30.13 in 9.0 mi WNW 8.1 mph 17.3 mph N/A   Overcast
5:00 PM 53 °F - 42 °F 58% 30.14 in - West 9.2 mph - -  
5:00 PM 53.6 °F - 42.8 °F 67% 30.14 in 9.0 mi WNW 9.2 mph - N/A   Overcast
5:23 PM 51.8 °F - 42.8 °F 71% 30.15 in 9.0 mi WNW 6.9 mph - N/A Rain Light Rain
5:46 PM 51.8 °F - 44.6 °F 76% 30.16 in 9.0 mi SSW 6.9 mph - N/A   Overcast
6:00 PM 51.8 °F - 42.8 °F 71% 30.16 in 9.0 mi West 8.1 mph - N/A   Overcast
6:24 PM 51.8 °F - 42.8 °F 71% 30.17 in 9.0 mi WNW 6.9 mph - N/A Rain Light Rain
6:36 PM 51.8 °F - 44.6 °F 76% 30.17 in 9.0 mi SW 4.6 mph - N/A   Overcast
7:00 PM 50.0 °F - 44.6 °F 82% 30.18 in 9.0 mi WSW 3.5 mph - N/A   Overcast
8:00 PM 49 °F - 44 °F 76% 30.19 in - SW 3.5 mph - -  
8:00 PM 50.0 °F - 44.6 °F 82% 30.19 in 9.0 mi Variable 2.3 mph - N/A   Overcast
9:00 PM 50.0 °F - 42.8 °F 76% 30.22 in 9.0 mi WSW 5.8 mph - N/A   Overcast
10:00 PM 48.2 °F - 42.8 °F 82% 30.24 in 9.0 mi SW 6.9 mph - N/A   Overcast
11:00 PM 48 °F - 42 °F 72% 30.25 in - SW 5.8 mph - -  
11:00 PM 48.2 °F - 41.0 °F 76% 30.25 in 9.0 mi WSW 6.9 mph - N/A   Overcast